Flag for U.S.A. Weather past 2 weeks in Little Rock, Arkansas, U.S.A.

Now
77 °F

Clear.


Feels Like: 79 °F
Forecast: 74 / 94 °F
Wind: No wind

Location: Adams Field

Current Time: Sep 4, 2015 at 2:01:17 AM

Latest Report: Sep 4, 2015 at 12:53 AM


Visibility: 10 mi

Pressure: 29.94 "Hg

Humidity: 77%

Dew point: 69 °F

Location of Little RockLocation

Historic Weather in Little Rock — Graph

°F

Little Rock temperature yesterday

Maximum temperature yesterday: 95 °F (at 1:53 PM)
Minimum temperature yesterday: 72 °F (at 2:53 AM)
Average temperature yesterday: 83 °F

Past Weeks' High & Low Weather Summary

 TemperatureHumidityPressure
High95 °F (Aug 30, 1:53 PM)94% (Aug 22, 2:53 AM)30.18 "Hg (Aug 22, 2:53 AM)
Low63 °F (Aug 25, 5:53 AM)24% (Aug 25, 3:53 PM)29.89 "Hg (Sep 3, 7:53 PM)
Average78 °F66%30.04 "Hg
* Reported Aug 20 12:53 AM — Sep 4 12:53 AM, Little Rock, Weather by CustomWeather, © 2015

Note: Actual official high and low records may vary slightly from our data, if they occured in-between our weather recording intervals... More about our weather records

Advertising

Little Rock weather history for previous 24 hours

 ConditionsComfort  
Time TempWeatherWind HumidityBarometerVisibility
12:53 AM
Fri, Sep 4
77 °FClear.No wind77%29.94 "Hg10 mi
11:53 PM
Thu, Sep 3
79 °FClear.No wind74%29.94 "Hg10 mi
10:53 PM81 °FClear.No wind67%29.93 "Hg10 mi
9:53 PM81 °FClear.No wind67%29.93 "Hg10 mi
8:53 PM83 °FClear.5 mph61%29.91 "Hg10 mi
7:53 PM87 °FPassing clouds.5 mph53%29.89 "Hg10 mi
6:53 PM91 °FPassing clouds.6 mph45%29.90 "Hg10 mi
5:53 PM93 °FScattered clouds.8 mph41%29.90 "Hg10 mi
4:53 PM94 °FScattered clouds.5 mph41%29.91 "Hg10 mi
3:53 PM94 °FScattered clouds.6 mph40%29.93 "Hg10 mi
2:53 PM94 °FScattered clouds.8 mph40%29.95 "Hg10 mi
1:53 PM95 °FScattered clouds.6 mph41%29.97 "Hg10 mi
12:53 PM93 °FScattered clouds.9 mph42%29.99 "Hg10 mi
11:53 AM92 °FPassing clouds.3 mph47%30.01 "Hg10 mi
10:53 AM88 °FPassing clouds.3 mph54%30.02 "Hg10 mi
9:53 AM84 °FSunny.3 mph63%30.03 "Hg7 mi
8:53 AM79 °FSunny.No wind77%30.03 "Hg7 mi
7:53 AM75 °FFog.No wind88%30.03 "Hg5 mi
6:53 AM72 °FFog.No wind93%30.01 "Hg6 mi
5:53 AM72 °FClear.No wind93%30.01 "Hg7 mi
4:53 AM72 °FClear.No wind93%30.00 "Hg10 mi
3:53 AM72 °FClear.No wind91%30.00 "Hg10 mi
2:53 AM72 °FClear.No wind93%29.99 "Hg10 mi
Weather by CustomWeather, © 2015

See weather overviewHow to use our weather pages